Home   Weather   Ancona   Past weeks

Flag for Italy Past Weather in Ancona, Italy — Yesterday and Last 2 Weeks

Now
66 °F

Passing clouds.


Feels Like: 66 °F
Forecast: 61 / 72 °F
Wind: 5 mph from Southwest

Location: Falconara

Current Time: Sep 27, 2016 at 10:48:29 AM

Latest Report: Sep 27, 2016 at 9:50 AM


Visibility: N/A

Pressure: 30.21 "Hg

Humidity: 60%

Dew Point: 52 °F

Location of AnconaLocation

Past Weather in Ancona — Graph

°F

Ancona Temperature Yesterday

Maximum temperature yesterday: 73 °F (at 12:50 PM)
Minimum temperature yesterday: 55 °F (at 1:50 AM)
Average temperature yesterday: 63 °F

High & Low Weather Summary for the Past Weeks

 TemperatureHumidityPressure
High82 °F (Sep 15, 3:50 PM)100% (Sep 19, 11:50 PM)30.30 "Hg (Sep 19, 11:50 PM)
Low52 °F (Sep 23, 4:50 AM)35% (Sep 17, 4:50 PM)29.77 "Hg (Sep 19, 2:50 AM)
Average68 °F72%30.01 "Hg
* Reported Sep 12 8:50 AM — Sep 27 8:50 AM, Ancona, Weather by CustomWeather, © 2016

Note: Actual official high and low records may vary slightly from our data, if they occured in-between our weather recording intervals... More about our weather records

Advertising

Ancona Weather History for the Previous 24 Hours

Scroll right to see more
 ConditionsComfort  
Time TempWeatherWind HumidityBarometerVisibility
8:50 AM
Tue, Sep 27
61 °FSunny.5 mph72%30.18 "Hg10 mi
7:50 AM55 °FSunny.3 mph77%30.15 "Hg10 mi
6:50 AM54 °FClear.3 mph82%30.15 "Hg10 mi
5:50 AM54 °FClear.5 mph82%30.15 "Hg10 mi
4:50 AM54 °FClear.5 mph82%30.15 "Hg10 mi
3:50 AM54 °FClear.3 mph82%30.15 "Hg10 mi
2:50 AM54 °FClear.5 mph82%30.15 "Hg10 mi
1:50 AM55 °FClear.5 mph82%30.15 "Hg10 mi
12:50 AM55 °FClear.3 mph82%30.15 "Hg10 mi
11:50 PM
Mon, Sep 26
57 °FClear.3 mph77%30.15 "Hg10 mi
10:50 PM57 °FClear.2 mph77%30.15 "Hg10 mi
9:50 PM59 °FClear.2 mph72%30.15 "Hg10 mi
8:50 PM59 °FClear.No wind68%30.12 "Hg10 mi
7:50 PM66 °FClear.3 mph52%30.12 "Hg10 mi
6:50 PM70 °FPassing clouds.3 mph46%30.09 "HgN/A
5:50 PM72 °FSunny.12 mph47%30.09 "Hg10 mi
4:50 PM73 °FPassing clouds.10 mph47%30.12 "HgN/A
3:50 PM73 °FSunny.10 mph47%30.12 "Hg10 mi
2:50 PM73 °FPassing clouds.10 mph47%30.09 "HgN/A
1:50 PM73 °FPassing clouds.6 mph57%30.09 "HgN/A
12:50 PM73 °FPassing clouds.12 mph65%30.12 "HgN/A
11:50 AM72 °FPassing clouds.12 mph69%30.12 "HgN/A
10:50 AM70 °FPassing clouds.3 mph69%30.12 "HgN/A
Weather by CustomWeather, © 2016

See weather overviewHow to use our weather pages